sat.trackr.live / text

‹ back to catalog

STARLINK-36114

NORAD 66870 · 2025-281Y

PAYLOAD ACTIVE UNKNOWN

§ Identity

Operator
Country
US
Launch date
2025-12-02
Launch site
AFETR
Launch vehicle
Mass (kg)
RCS (m²)

Purposes: comms

External: N2YO · Heavens-Above · Gunter

§ Orbital elements

Epoch: 2026-09-20T20:50:31.663392Z

Period
94.27 min
Inclination
43.0031°
Eccentricity
0.0001623
Mean motion
15.27583808 rev/d
Perigee alt
481.9 km
Apogee alt
484.2 km
Semi-major
6,861.2 km
B*
4.6429e-4
RAAN
321.3737°
Arg perigee
270.7559°
Mean anomaly
89.3107°
Rev number
4,602

§ Raw data

STARLINK-361141 66870U 25281Y   26263.86842203  .00012537  00000+0  46429-3 0  99922 66870  43.0031 321.3737 0001623 270.7559  89.3107 15.27583808 46020

JSON: /api/v1/satellites/66870 · /tle

For live sub-satellite position, see the globe view (requires WebGL).

§ Visibility from observer

Set your observer location to see the next 7 days of passes ≥ 10°. The values pass through the URL so the page stays shareable.

No JS? Fill the form by hand. The geolocation button needs JavaScript.